Time,TemperatureF,DewpointF,PressureIn,WindDirection,WindDirectionDegrees,WindSpeedMPH,WindSpeedGustMPH,Humidity,HourlyPrecipIn,Conditions,Clouds,dailyrainin,SoftwareType,DateUTC
2013-07-16 00:11:00,67.0,36.0,-100.00,WSW,256,24.0,31.0,32,-99.99,,,-99.99,,2013-07-16 07:11:00,
2013-07-16 00:43:00,68.0,35.0,-100.00,WSW,257,24.0,31.0,29,-99.99,,,-99.99,,2013-07-16 07:43:00,
2013-07-16 00:52:00,68.0,35.0,-100.00,WSW,257,24.0,31.0,29,-99.99,,,-99.99,,2013-07-16 07:52:00,
2013-07-16 01:11:00,67.0,34.0,-100.00,WSW,257,22.0,28.0,29,-99.99,,,-99.99,,2013-07-16 08:11:00,
2013-07-16 01:22:00,67.0,34.0,-100.00,West,259,22.0,28.0,29,-99.99,,,-99.99,,2013-07-16 08:22:00,
2013-07-16 01:43:00,67.0,34.0,-100.00,West,260,21.0,26.0,29,-99.99,,,-99.99,,2013-07-16 08:43:00,
2013-07-16 01:52:00,67.0,34.0,-100.00,West,259,21.0,27.0,29,-99.99,,,-99.99,,2013-07-16 08:52:00,
2013-07-16 02:12:00,67.0,34.0,-100.00,West,259,21.0,27.0,29,-99.99,,,-99.99,,2013-07-16 09:12:00,
2013-07-16 02:22:00,67.0,34.0,-100.00,West,259,20.0,26.0,29,-99.99,,,-99.99,,2013-07-16 09:22:00,
2013-07-16 03:11:00,67.0,32.0,-100.00,West,259,21.0,27.0,27,-99.99,,,-99.99,,2013-07-16 10:11:00,
2013-07-16 03:42:00,68.0,30.0,-100.00,WSW,257,21.0,28.0,24,-99.99,,,-99.99,,2013-07-16 10:42:00,
2013-07-16 03:52:00,68.0,30.0,-100.00,WSW,257,22.0,29.0,24,-99.99,,,-99.99,,2013-07-16 10:52:00,
2013-07-16 04:11:00,68.0,29.0,-100.00,West,259,22.0,27.0,23,-99.99,,,-99.99,,2013-07-16 11:11:00,
2013-07-16 04:22:00,68.0,29.0,-100.00,WSW,258,24.0,32.0,23,-99.99,,,-99.99,,2013-07-16 11:22:00,
2013-07-16 04:42:00,68.0,27.0,-100.00,WSW,258,24.0,30.0,21,-99.99,,,-99.99,,2013-07-16 11:42:00,
2013-07-16 04:52:00,68.0,27.0,-100.00,WSW,258,23.0,29.0,21,-99.99,,,-99.99,,2013-07-16 11:52:00,
2013-07-16 05:11:00,68.0,25.0,-100.00,WSW,257,23.0,31.0,20,-99.99,,,-99.99,,2013-07-16 12:11:00,
2013-07-16 05:22:00,69.0,24.0,-100.00,WSW,258,25.0,31.0,18,-99.99,,,-99.99,,2013-07-16 12:22:00,
2013-07-16 05:32:00,69.0,24.0,-100.00,WSW,258,25.0,31.0,18,-99.99,,,-99.99,,2013-07-16 12:32:00,
2013-07-16 05:43:00,69.0,22.0,-100.00,WSW,258,26.0,32.0,17,-99.99,,,-99.99,,2013-07-16 12:43:00,
2013-07-16 05:53:00,69.0,22.0,-100.00,WSW,258,26.0,32.0,17,-99.99,,,-99.99,,2013-07-16 12:53:00,
2013-07-16 06:01:00,69.0,22.0,-100.00,WSW,258,25.0,34.0,17,-99.99,,,-99.99,,2013-07-16 13:01:00,
2013-07-16 06:11:00,69.0,22.0,-100.00,WSW,258,25.0,34.0,17,-99.99,,,-99.99,,2013-07-16 13:11:00,
2013-07-16 06:21:00,69.0,22.0,-100.00,WSW,258,25.0,34.0,17,-99.99,,,-99.99,,2013-07-16 13:21:00,
2013-07-16 06:42:00,69.0,21.0,-100.00,WSW,254,24.0,29.0,16,-99.99,,,-99.99,,2013-07-16 13:42:00,
2013-07-16 06:52:00,69.0,21.0,-100.00,WSW,255,24.0,30.0,16,-99.99,,,-99.99,,2013-07-16 13:52:00,
2013-07-16 07:11:00,69.0,19.0,-100.00,WSW,256,26.0,32.0,15,-99.99,,,-99.99,,2013-07-16 14:11:00,
2013-07-16 07:21:00,69.0,19.0,-100.00,WSW,256,26.0,32.0,15,-99.99,,,-99.99,,2013-07-16 14:21:00,
2013-07-16 07:42:00,70.0,20.0,-100.00,WSW,252,25.0,34.0,15,-99.99,,,-99.99,,2013-07-16 14:42:00,
2013-07-16 08:11:00,70.0,19.0,-100.00,WSW,251,27.0,34.0,14,-99.99,,,-99.99,,2013-07-16 15:11:00,
2013-07-16 08:21:00,70.0,19.0,-100.00,WSW,251,27.0,34.0,14,-99.99,,,-99.99,,2013-07-16 15:21:00,
2013-07-16 08:32:00,70.0,20.0,-100.00,WSW,254,25.0,33.0,15,-99.99,,,-99.99,,2013-07-16 15:32:00,
2013-07-16 09:11:00,72.0,18.0,-100.00,WSW,256,25.0,34.0,13,-99.99,,,-99.99,,2013-07-16 16:11:00,
2013-07-16 09:21:00,72.0,18.0,-100.00,WSW,256,25.0,34.0,13,-99.99,,,-99.99,,2013-07-16 16:21:00,
2013-07-16 09:32:00,72.0,18.0,-100.00,WSW,256,25.0,34.0,13,-99.99,,,-99.99,,2013-07-16 16:32:00,
2013-07-16 09:43:00,73.0,19.0,-100.00,WSW,255,24.0,32.0,13,-99.99,,,-99.99,,2013-07-16 16:43:00,
2013-07-16 09:52:00,73.0,19.0,-100.00,WSW,255,24.0,32.0,13,-99.99,,,-99.99,,2013-07-16 16:52:00,
2013-07-16 10:12:00,73.0,19.0,-100.00,WSW,258,22.0,30.0,13,-99.99,,,-99.99,,2013-07-16 17:12:00,
2013-07-16 10:22:00,73.0,19.0,-100.00,WSW,258,22.0,30.0,13,-99.99,,,-99.99,,2013-07-16 17:22:00,
2013-07-16 10:32:00,74.0,18.0,-100.00,WSW,258,20.0,27.0,12,-99.99,,,-99.99,,2013-07-16 17:32:00,
2013-07-16 10:43:00,74.0,18.0,-100.00,WSW,256,20.0,26.0,12,-99.99,,,-99.99,,2013-07-16 17:43:00,
2013-07-16 11:11:00,74.0,20.0,-100.00,WSW,252,18.0,27.0,13,-99.99,,,-99.99,,2013-07-16 18:11:00,
2013-07-16 11:32:00,74.0,22.0,-100.00,WSW,257,19.0,26.0,14,-99.99,,,-99.99,,2013-07-16 18:32:00,
2013-07-16 11:43:00,75.0,23.0,-100.00,West,259,18.0,25.0,14,-99.99,,,-99.99,,2013-07-16 18:43:00,
2013-07-16 12:01:00,75.0,23.0,-100.00,WSW,258,19.0,27.0,14,-99.99,,,-99.99,,2013-07-16 19:01:00,
2013-07-16 12:11:00,75.0,23.0,-100.00,WSW,258,19.0,27.0,14,-99.99,,,-99.99,,2013-07-16 19:11:00,
2013-07-16 12:22:00,76.0,22.0,-100.00,West,260,19.0,25.0,13,-99.99,,,-99.99,,2013-07-16 19:22:00,
2013-07-16 12:43:00,76.0,22.0,-100.00,West,259,19.0,25.0,13,-99.99,,,-99.99,,2013-07-16 19:43:00,
2013-07-16 12:52:00,76.0,22.0,-100.00,West,259,19.0,25.0,13,-99.99,,,-99.99,,2013-07-16 19:52:00,
2013-07-16 13:11:00,76.0,18.0,-100.00,West,259,20.0,26.0,11,-99.99,,,-99.99,,2013-07-16 20:11:00,
2013-07-16 13:22:00,76.0,20.0,-100.00,WSW,257,19.0,26.0,12,-99.99,,,-99.99,,2013-07-16 20:22:00,
2013-07-16 13:32:00,76.0,20.0,-100.00,WSW,257,19.0,27.0,12,-99.99,,,-99.99,,2013-07-16 20:32:00,
2013-07-16 13:43:00,76.0,22.0,-100.00,West,267,18.0,25.0,13,-99.99,,,-99.99,,2013-07-16 20:43:00,
2013-07-16 13:52:00,76.0,22.0,-100.00,West,267,18.0,25.0,13,-99.99,,,-99.99,,2013-07-16 20:52:00,
2013-07-16 14:01:00,77.0,22.0,-100.00,West,261,18.0,27.0,13,-99.99,,,-99.99,,2013-07-16 21:01:00,
2013-07-16 14:11:00,77.0,22.0,-100.00,West,261,18.0,27.0,13,-99.99,,,-99.99,,2013-07-16 21:11:00,
2013-07-16 15:01:00,77.0,24.0,-100.00,West,259,17.0,25.0,14,-99.99,,,-99.99,,2013-07-16 22:01:00,
2013-07-16 15:11:00,77.0,24.0,-100.00,West,259,17.0,25.0,14,-99.99,,,-99.99,,2013-07-16 22:11:00,
2013-07-16 15:22:00,77.0,26.0,-100.00,West,260,18.0,25.0,15,-99.99,,,-99.99,,2013-07-16 22:22:00,
2013-07-16 15:33:00,77.0,22.0,-100.00,West,265,18.0,25.0,13,-99.99,,,-99.99,,2013-07-16 22:33:00,
2013-07-16 15:43:00,77.0,22.0,-100.00,West,265,18.0,25.0,13,-99.99,,,-99.99,,2013-07-16 22:43:00,
2013-07-16 15:52:00,77.0,22.0,-100.00,West,265,18.0,25.0,13,-99.99,,,-99.99,,2013-07-16 22:52:00,
2013-07-16 16:01:00,78.0,25.0,-100.00,West,260,18.0,27.0,14,-99.99,,,-99.99,,2013-07-16 23:01:00,
2013-07-16 16:11:00,78.0,25.0,-100.00,West,260,18.0,27.0,14,-99.99,,,-99.99,,2013-07-16 23:11:00,
2013-07-16 16:32:00,76.0,34.0,-100.00,WSW,252,19.0,27.0,22,-99.99,,,-99.99,,2013-07-16 23:32:00,
2013-07-16 16:40:00,75.0,38.0,-100.00,WSW,256,19.0,25.0,26,-99.99,,,-99.99,,2013-07-16 23:40:00,
2013-07-16 16:52:00,75.0,38.0,-100.00,WSW,255,19.0,26.0,26,-99.99,,,-99.99,,2013-07-16 23:52:00,
2013-07-16 17:01:00,75.0,38.0,-100.00,WSW,255,19.0,26.0,26,-99.99,,,-99.99,,2013-07-17 00:01:00,
2013-07-16 17:11:00,75.0,38.0,-100.00,WSW,256,19.0,25.0,26,-99.99,,,-99.99,,2013-07-17 00:11:00,
2013-07-16 17:22:00,75.0,38.0,-100.00,WSW,256,19.0,25.0,26,-99.99,,,-99.99,,2013-07-17 00:22:00,
2013-07-16 17:33:00,75.0,38.0,-100.00,WSW,256,19.0,25.0,26,-99.99,,,-99.99,,2013-07-17 00:33:00,
2013-07-16 18:01:00,72.0,36.0,-100.00,WSW,250,21.0,29.0,27,-99.99,,,-99.99,,2013-07-17 01:01:00,
2013-07-16 18:11:00,72.0,36.0,-100.00,WSW,250,21.0,29.0,27,-99.99,,,-99.99,,2013-07-17 01:11:00,
2013-07-16 18:22:00,72.0,36.0,-100.00,WSW,250,21.0,29.0,27,-99.99,,,-99.99,,2013-07-17 01:22:00,
2013-07-16 18:32:00,70.0,33.0,-100.00,WSW,251,24.0,30.0,25,-99.99,,,-99.99,,2013-07-17 01:32:00,
2013-07-16 18:52:00,70.0,33.0,-100.00,WSW,255,23.0,30.0,25,-99.99,,,-99.99,,2013-07-17 01:52:00,
2013-07-16 19:11:00,69.0,32.0,-100.00,WSW,251,22.0,28.0,25,-99.99,,,-99.99,,2013-07-17 02:11:00,
2013-07-16 19:21:00,69.0,32.0,-100.00,WSW,255,22.0,29.0,25,-99.99,,,-99.99,,2013-07-17 02:21:00,
2013-07-16 19:32:00,69.0,32.0,-100.00,WSW,255,22.0,29.0,25,-99.99,,,-99.99,,2013-07-17 02:32:00,
2013-07-16 19:43:00,69.0,32.0,-100.00,WSW,255,22.0,29.0,25,-99.99,,,-99.99,,2013-07-17 02:43:00,
2013-07-16 19:53:00,67.0,30.0,-100.00,West,261,21.0,30.0,25,-99.99,,,-99.99,,2013-07-17 02:53:00,
2013-07-16 20:01:00,67.0,30.0,-100.00,West,261,21.0,30.0,25,-99.99,,,-99.99,,2013-07-17 03:01:00,
2013-07-16 20:11:00,67.0,30.0,-100.00,West,261,21.0,30.0,25,-99.99,,,-99.99,,2013-07-17 03:11:00,
2013-07-16 20:32:00,65.0,32.0,-100.00,WSW,258,22.0,28.0,29,-99.99,,,-99.99,,2013-07-17 03:32:00,
2013-07-16 20:52:00,63.0,32.0,-100.00,West,260,21.0,27.0,31,-99.99,,,-99.99,,2013-07-17 03:52:00,
2013-07-16 21:01:00,63.0,32.0,-100.00,West,262,22.0,27.0,31,-99.99,,,-99.99,,2013-07-17 04:01:00,
2013-07-16 21:11:00,62.0,33.0,-100.00,West,264,20.0,28.0,33,-99.99,,,-99.99,,2013-07-17 04:11:00,
2013-07-16 21:22:00,62.0,33.0,-100.00,West,269,18.0,23.0,33,-99.99,,,-99.99,,2013-07-17 04:22:00,
2013-07-16 21:32:00,62.0,33.0,-100.00,West,269,18.0,23.0,33,-99.99,,,-99.99,,2013-07-17 04:32:00,
2013-07-16 21:43:00,64.0,24.0,-100.00,West,264,18.0,22.0,22,-99.99,,,-99.99,,2013-07-17 04:43:00,
2013-07-16 21:53:00,64.0,24.0,-100.00,West,264,18.0,22.0,22,-99.99,,,-99.99,,2013-07-17 04:53:00,
2013-07-16 22:01:00,64.0,23.0,-100.00,West,263,17.0,20.0,21,-99.99,,,-99.99,,2013-07-17 05:01:00,
2013-07-16 22:11:00,64.0,23.0,-100.00,West,263,17.0,20.0,21,-99.99,,,-99.99,,2013-07-17 05:11:00,